ONEWEB-0191 (48239 NORAD) Tracking and Keplerian Element Data

This shows tracking and keplerian element data for the satellite.

Feedback or suggestion? Click here.




ElementValue
Catalog48239
NameONEWEB-0191
Epoch Orbit180
Epoch Day136.91668981
Epoch Year2021
RAAN305.7374
Inclination87.4115
Eccentricity0.0008005
Argument of Perigee193.7959
Mean Anonmoly329.8656
Mean Motion15.2246545
Decay Rate-0.01397779
L11 48239U 21031AF 21136.91668981 -.01397779 00000-0 -66643-1 0 9995
L22 48239 87.4115 305.7374 0008005 193.7959 329.8656 15.22465450 1801

Live tracking and technical data element details for ONEWEB-0191 (NORAD 48239). ONEWEB-0191 can be tracked NOW for your location showing map with azimuth and elevation plus other details from your city location.

Track the satellite on the map from your city or location and see movement details for azimuth, elevation, latitude, longitude, range, height, and movement on the map or in text.







IsCatalogInMostPopularTable: catalog: 48239, numindb: 6
Update: records affected: 1



GetName: 48239 ONEWEB-0191

Hit Count: updated at: Mon, 17 May 2021 15:22:23 GMT